Wind_Speed
25 26 27 28 29 30 31 32 34 35 35 36 36 35 35 36 37 37 38 38 37 37 37 36 36 36 36 36 36 36 36 36 36 36 37 38 37 38 38 38 40 40 41 42 43 45 46 46 47 47 45 45 44 43 42 42 41 41 42 43 44 44 45 45 47 48 45 44 43 43 42 42 43 43 44 44 43 42 41 41 40 39 38 36 35
25 26 28 29 30 30 30 31 32 33 34 35 36 36 36 36 37 38 39 39 39 39 39 38 38 38 38 38 37 37 37 37 36 37 38 38 38 38 38 38 39 39 39 40 40 41 42 43 44 44 43 44 43 42 41 41 41 41 41 42 43 43 44 45 46 48 47 46 46 46 45 45 46 46 46 46 44 43 42 41 39 38 34 32 33
25 26 27 29 31 32 33 33 33 33 33 34 35 36 37 38 38 39 40 40 40 40 40 40 39 39 39 39 38 38 38 37 37 38 38 38 39 39 39 38 39 38 38 38 37 37 38 39 39 39 39 40 40 40 40 40 41 42 42 42 42 43 43 44 45 47 48 48 48 49 48 48 48 48 48 47 45 44 43 40 39 35 30 30 33
29 28 28 28 29 31 33 34 35 35 35 35 35 35 36 38 39 40 40 40 40 39 39 40 39 39 39 38 38 37 37 36 36 37 37 37 38 38 37 38 38 38 37 37 36 35 36 36 35 34 34 37 37 38 39 40 41 42 43 43 43 43 43 44 46 47 48 50 51 50 50 50 50 50 49 47 45 43 41 39 38 34 31 31 32
33 33 32 31 31 31 32 34 35 36 37 37 37 36 37 37 39 40 40 41 40 39 38 39 39 39 38 37 37 36 35 34 34 35 35 35 35 35 36 36 36 37 37 36 35 35 35 35 33 32 33 35 36 37 38 40 41 42 43 44 45 45 45 46 47 49 50 52 51 51 51 51 51 50 48 46 44 42 38 37 37 35 32 31 31
35 36 36 36 35 34 34 34 34 35 35 36 37 37 37 38 38 39 40 41 41 40 39 38 37 38 37 36 35 34 33 33 33 32 32 32 33 34 34 35 35 36 36 36 36 35 35 35 34 33 34 35 36 36 38 40 41 43 44 45 46 46 48 48 49 50 51 52 52 51 51 51 51 50 47 45 44 42 39 36 34 31 29 29 32
39 39 39 39 39 38 38 37 36 36 36 36 36 36 37 37 38 39 40 41 41 40 39 37 36 36 35 35 34 33 32 32 31 30 29 30 31 32 33 34 35 35 36 36 36 36 36 36 35 34 35 35 36 37 39 40 42 43 44 45 46 47 49 50 50 50 51 52 52 51 51 50 50 48 46 44 43 43 41 35 29 27 28 29 31
43 43 43 43 42 41 41 40 40 39 39 38 38 38 37 37 38 39 40 40 40 40 40 38 37 36 35 35 35 34 34 34 33 31 31 31 31 32 33 34 35 36 37 37 37 38 38 37 37 36 36 36 36 37 39 40 42 43 43 44 45 46 48 49 50 50 50 50 51 50 50 50 49 47 45 44 44 42 37 30 27 26 28 29 29
45 45 46 45 45 44 44 43 43 42 42 41 40 40 39 38 38 39 39 40 40 40 41 41 40 38 37 36 36 36 37 37 35 34 34 34 34 35 36 37 37 38 38 38 39 39 40 40 40 39 38 38 38 38 39 40 42 43 43 43 44 45 46 47 48 48 47 48 48 47 48 49 46 44 44 43 41 36 30 28 30 30 30 31 31
45 46 46 47 46 46 46 45 45 44 43 43 42 41 41 41 40 39 40 41 41 41 42 43 43 41 39 38 38 38 39 38 37 36 36 36 36 37 38 38 39 39 40 40 40 40 40 41 41 41 41 41 41 41 41 41 42 43 43 43 44 45 45 46 45 46 46 46 46 46 47 47 44 44 44 40 35 31 29 31 34 36 37 36 34
46 46 47 47 47 47 47 46 46 44 43 43 43 43 42 42 42 41 41 41 42 43 43 44 45 44 43 42 41 41 41 39 38 38 38 38 38 39 39 39 39 39 39 40 40 41 42 43 43 43 43 43 42 42 43 43 43 43 43 44 45 46 46 46 45 45 45 45 44 45 45 45 44 43 40 36 33 33 35 35 36 41 43 39 34
48 47 47 47 47 47 46 46 46 44 43 42 43 43 43 43 43 43 43 43 43 44 45 45 46 46 47 46 45 44 43 42 41 40 41 42 42 42 42 41 40 40 39 40 41 42 44 45 45 45 44 44 44 44 44 44 44 44 44 44 46 46 46 46 46 45 45 44 44 45 45 45 44 39 35 34 35 37 40 40 39 41 41 37 33
50 50 49 48 48 48 47 47 45 44 42 41 41 41 42 43 44 45 46 45 44 44 45 46 47 47 48 49 49 48 47 45 43 42 43 44 44 44 44 44 43 43 42 43 43 44 45 46 47 47 46 45 45 45 44 44 43 44 44 45 46 46 46 46 46 46 46 45 45 45 44 43 40 35 32 34 37 38 40 42 40 39 37 34 32
49 50 49 49 49 48 48 48 46 43 42 41 40 39 40 41 43 45 47 47 46 45 44 45 46 47 48 50 50 50 50 48 46 46 46 46 45 45 45 45 45 45 46 46 46 46 47 47 49 49 48 46 45 45 45 44 43 43 44 45 45 45 45 45 45 45 45 45 45 44 42 40 37 34 34 37 38 38 39 38 37 35 34 33 32
47 47 48 47 47 47 47 47 45 43 42 41 40 39 39 40 41 42 44 46 47 46 45 45 44 45 46 49 51 51 51 49 48 47 47 47 47 47 47 47 46 46 47 47 48 48 48 49 50 51 51 49 47 45 45 44 44 44 45 45 44 44 44 44 44 44 44 44 43 42 39 37 36 36 38 39 38 38 38 36 34 34 33 32 32
44 44 45 44 44 44 45 45 44 43 41 41 40 40 39 39 40 40 41 42 43 44 45 45 44 44 44 45 47 49 50 50 49 48 48 47 47 48 49 49 49 48 48 48 48 48 48 49 50 51 53 52 49 46 44 43 44 45 45 45 43 43 43 43 43 42 42 42 41 39 37 36 36 37 38 38 38 38 39 38 35 33 32 31 32
42 41 41 41 41 41 41 42 42 42 41 41 41 40 39 39 39 39 40 41 41 41 42 42 43 43 42 42 42 44 46 47 47 48 49 48 48 48 49 49 50 50 50 49 49 48 48 49 51 52 53 53 50 46 43 42 43 44 44 44 42 42 42 41 40 40 39 39 37 36 36 35 36 37 37 38 39 39 39 39 35 33 33 33 33
41 39 38 37 37 36 36 37 38 39 39 39 39 39 38 37 37 37 38 39 39 38 39 39 40 40 40 40 40 40 41 41 42 43 45 47 48 49 50 50 51 51 51 51 50 49 50 51 52 53 54 53 50 46 43 42 41 42 42 41 41 41 40 38 37 37 36 36 36 36 37 37 37 38 39 40 41 40 39 38 35 34 34 33 33
39 37 36 34 34 34 33 34 34 36 36 36 36 36 36 36 36 36 36 36 36 36 36 37 36 36 37 37 37 38 38 38 39 39 39 41 44 47 49 51 53 53 53 53 52 51 51 52 52 54 54 52 50 48 44 41 40 40 40 40 41 41 38 36 36 36 35 35 36 37 38 38 38 40 41 42 42 40 39 38 36 35 35 34 35
37 35 34 34 33 33 33 32 33 34 34 35 35 35 36 36 36 36 36 36 36 36 35 36 35 34 34 34 35 35 35 36 37 38 38 38 39 41 44 46 49 51 53 54 55 54 52 51 52 53 53 52 50 49 47 44 42 41 40 41 41 39 37 37 37 37 36 36 37 38 39 40 40 41 42 43 42 41 40 39 37 37 37 36 36
34 34 34 35 35 34 33 33 33 33 34 34 34 35 35 36 36 36 36 36 36 36 35 36 35 34 33 33 32 33 33 34 35 37 38 39 39 40 41 42 44 45 48 50 53 54 53 52 51 52 52 51 49 49 48 46 44 43 43 43 42 39 39 40 40 39 38 39 39 39 40 40 41 41 41 42 42 42 42 40 39 39 39 39 38
32 33 35 37 37 36 35 34 33 33 33 33 33 33 34 35 35 36 36 36 36 36 36 36 35 34 33 32 31 31 32 32 33 34 36 38 39 40 41 42 43 44 44 45 47 51 52 52 52 52 51 49 48 48 49 48 46 46 46 45 44 43 44 44 42 41 41 40 40 40 40 40 40 41 41 42 43 43 42 42 43 43 42 41 41
35 36 38 40 40 37 34 33 33 32 32 31 31 31 32 33 34 34 35 36 36 36 36 36 36 35 34 33 31 30 30 30 31 32 34 35 36 38 40 41 43 44 44 43 44 46 48 50 52 53 53 51 47 47 49 50 49 48 46 46 46 47 48 47 45 43 42 42 42 42 41 41 41 41 41 43 44 44 45 45 46 46 45 44 44
38 39 40 42 43 41 35 31 30 29 29 30 30 31 31 31 32 32 32 33 34 34 34 34 34 34 34 33 31 30 29 29 30 31 32 33 33 34 36 37 40 41 43 43 43 44 45 47 49 52 54 54 51 48 49 51 51 50 48 46 46 47 48 49 48 47 46 46 46 45 43 42 42 43 42 42 43 44 45 46 46 47 47 46 45
33 33 33 34 36 36 35 32 29 27 26 27 28 30 31 31 30 30 30 30 30 30 30 30 30 30 30 30 30 29 28 29 29 29 29 30 31 31 32 33 35 37 39 41 43 43 43 44 45 47 49 51 52 50 48 48 50 51 50 49 48 48 47 47 47 47 47 48 47 47 46 44 44 46 45 42 43 46 46 46 46 46 46 46 44
30 30 30 30 29 30 31 32 31 29 28 29 29 29 30 30 30 30 30 30 30 29 29 29 28 27 26 26 25 25 25 25 26 27 27 28 28 29 29 30 31 33 35 37 40 41 42 42 43 43 44 45 47 47 45 45 48 51 53 52 52 51 49 47 45 44 45 46 46 46 47 45 47 50 48 43 43 48 49 48 47 46 46 45 43
32 32 32 32 31 31 31 31 31 30 31 32 32 32 32 32 32 32 32 33 32 32 32 31 30 29 28 26 24 23 22 22 23 23 23 24 25 25 26 27 28 29 31 33 35 37 39 40 40 41 41 42 42 42 41 42 45 48 51 52 52 51 49 48 45 42 41 42 43 45 46 47 49 52 49 44 44 49 52 52 51 51 50 46 43
35 35 36 36 36 35 35 34 34 34 34 34 34 35 35 35 35 35 36 37 37 36 36 35 35 35 34 32 31 28 26 24 24 23 22 22 22 22 23 23 24 26 26 27 29 31 33 35 36 37 37 37 37 38 37 38 40 43 46 49 50 51 50 48 46 45 45 45 46 46 46 46 48 49 48 45 46 49 52 54 53 53 52 48 45
38 39 39 39 39 39 38 37 38 37 37 37 37 38 39 39 40 40 40 41 41 41 40 40 39 38 38 37 37 36 34 32 31 29 28 27 25 25 24 24 24 24 24 25 25 26 27 29 31 32 32 32 33 33 32 32 33 37 41 44 48 51 52 51 50 49 49 49 49 48 46 46 47 48 48 47 48 49 51 53 52 51 48 45 45
42 42 43 43 43 42 42 41 41 40 40 41 41 41 42 43 44 46 46 45 45 44 44 43 43 42 41 40 40 40 40 39 38 37 35 34 33 31 30 29 28 28 27 27 26 25 26 26 27 28 29 30 30 30 29 27 28 31 35 40 43 47 51 53 53 51 50 50 49 48 47 47 47 48 48 49 49 51 52 53 51 47 43 43 46
44 45 46 46 47 47 46 46 46 46 45 45 45 46 45 45 46 47 49 49 48 47 46 46 46 45 44 43 42 42 42 42 42 42 41 41 40 39 37 36 35 34 33 32 31 29 28 27 28 28 29 30 30 30 29 28 27 28 30 33 38 42 47 51 53 53 53 51 50 49 48 48 48 48 47 47 48 50 50 49 47 45 43 44 47
47 48 48 49 50 50 50 50 50 50 51 51 51 51 51 51 50 50 50 50 50 50 49 48 47 47 46 46 46 45 44 44 44 44 44 44 45 44 43 42 41 40 39 38 37 35 33 32 32 31 31 32 32 33 33 31 30 29 28 29 32 35 41 46 50 51 51 51 51 49 47 47 47 47 46 45 45 44 44 43 44 44 45 46 49
48 49 50 51 52 53 53 53 53 53 54 54 54 55 55 55 56 55 54 53 52 51 51 50 49 48 47 47 48 47 47 46 45 45 46 46 47 47 46 46 45 44 44 43 42 41 39 38 37 35 35 34 34 34 35 35 34 33 32 31 30 30 34 40 45 48 49 50 51 51 49 49 49 48 47 44 40 39 41 43 43 43 45 48 50
50 50 51 51 52 53 54 54 55 55 55 56 56 57 57 58 58 59 59 58 57 55 53 52 51 50 49 49 49 49 48 48 47 47 47 47 48 48 48 48 47 47 46 46 46 45 43 42 41 40 39 38 37 36 36 37 37 37 37 35 33 31 32 36 39 43 46 48 50 51 51 52 52 50 46 41 39 40 45 47 45 43 44 47 50
52 52 52 53 53 54 54 55 55 56 56 57 57 58 58 59 59 60 61 62 62 61 59 57 55 54 53 52 52 52 51 51 50 50 50 49 49 50 50 50 50 49 48 47 47 47 47 45 44 43 42 41 41 39 38 38 38 39 40 39 38 35 34 34 35 38 42 45 46 47 49 50 49 46 41 39 39 41 45 47 45 44 45 48 52
54 54 54 54 55 56 56 57 57 58 58 59 59 59 60 60 61 62 62 62 63 64 63 62 61 59 58 57 56 56 55 55 54 54 53 53 52 52 53 53 52 52 51 50 49 49 48 47 47 46 45 45 44 43 41 40 39 40 41 42 41 40 38 35 34 36 39 42 43 44 47 48 47 42 40 41 42 43 45 47 46 45 47 50 52
55 56 56 56 57 58 58 59 60 60 61 61 62 62 63 63 63 64 65 65 65 65 66 66 66 65 64 63 62 61 59 58 58 58 57 57 56 56 56 56 56 55 55 54 53 52 51 50 49 48 48 47 47 46 44 43 41 41 41 43 44 43 41 38 35 36 38 40 41 43 45 46 45 41 40 43 46 47 47 46 44 44 48 51 50
58 59 59 60 60 61 61 62 63 63 64 64 65 65 66 66 66 67 68 68 69 69 69 69 69 69 69 68 68 67 66 64 63 62 61 60 60 60 59 59 59 59 59 59 58 57 56 54 53 52 51 50 49 48 47 46 44 43 43 43 45 45 44 41 38 37 37 38 39 40 40 40 40 40 40 43 45 46 46 44 44 47 51 52 50
62 62 62 62 63 63 64 65 65 66 66 66 67 67 68 68 68 68 69 69 70 71 71 72 72 72 72 72 72 72 72 71 70 68 66 65 63 63 62 62 62 62 62 62 62 61 60 59 57 56 54 53 51 50 49 47 46 45 44 44 45 45 45 42 39 38 38 39 38 38 37 37 38 39 40 42 43 44 46 47 48 50 51 50 49
65 65 65 64 64 64 64 65 65 65 66 66 66 66 67 67 67 67 68 68 68 68 69 70 70 71 72 72 73 73 74 74 74 73 72 71 68 66 65 64 64 64 64 64 64 63 63 62 60 59 57 55 53 52 51 49 47 46 45 45 45 45 44 43 41 40 40 40 39 38 38 38 39 40 41 42 43 45 47 49 50 50 50 48 47
66 66 66 65 64 64 64 63 63 63 63 64 64 64 64 64 64 64 64 64 64 65 65 65 65 65 66 67 68 69 71 73 73 74 74 73 72 71 69 67 66 65 65 64 64 64 63 63 62 60 59 57 55 54 53 51 49 47 46 45 45 45 44 44 43 42 41 41 40 39 38 38 40 41 41 42 44 45 46 47 49 50 49 48 47
67 66 66 65 64 64 63 62 62 62 62 62 62 62 61 61 61 60 60 60 60 61 61 62 62 61 61 61 62 63 65 67 68 70 70 71 71 71 70 68 67 66 65 64 63 63 62 61 60 59 58 57 55 54 53 52 50 49 47 46 45 45 44 44 44 43 42 42 41 40 39 39 39 40 41 43 44 44 45 47 49 50 50 49 47
66 66 65 64 64 63 63 63 63 62 62 62 61 60 60 59 58 58 57 57 57 57 58 58 58 58 58 58 58 58 59 60 62 63 65 66 67 67 67 66 65 64 64 63 61 60 59 58 58 57 57 55 54 53 52 51 50 49 48 47 46 45 44 44 44 44 43 43 42 41 39 39 39 40 41 43 43 44 45 47 49 50 50 49 46
65 64 63 63 62 62 61 61 61 61 60 59 59 58 57 56 55 54 54 53 54 54 54 55 55 55 55 55 55 55 55 56 56 57 58 59 60 61 61 61 61 61 60 60 58 57 56 55 55 55 54 53 53 52 51 50 49 48 48 47 46 45 45 45 44 44 44 43 42 41 40 38 38 39 40 41 43 44 45 47 49 50 50 48 43
62 61 61 60 59 58 58 58 57 56 55 54 53 51 50 49 49 49 49 50 51 52 52 53 53 53 53 53 52 52 52 52 53 53 53 54 54 55 55 55 56 56 56 55 55 54 53 53 53 52 52 51 51 50 49 49 48 47 47 46 45 44 44 44 45 45 45 44 43 42 40 38 37 37 38 39 41 42 44 46 48 48 45 41 36
59 58 57 57 56 56 55 54 53 52 50 48 46 44 43 42 43 43 44 45 45 45 46 46 46 47 48 49 49 50 50 50 50 50 50 50 50 50 50 50 51 51 50 50 49 49 49 49 48 48 47 47 48 48 48 48 46 45 44 44 44 44 44 45 45 46 46 45 43 42 40 37 34 34 36 38 39 40 43 46 46 42 38 33 31
52 52 52 51 51 51 50 49 48 46 43 41 40 38 38 38 38 39 39 39 39 39 40 40 41 43 45 46 47 48 49 49 48 48 47 47 47 47 47 46 46 46 46 45 44 43 43 44 43 43 44 45 46 46 45 44 43 41 42 43 44 44 44 45 46 46 46 45 44 43 41 37 34 35 37 38 39 41 43 43 41 36 32 30 29
43 42 42 42 42 41 40 39 38 36 34 33 32 32 32 33 34 34 35 35 36 37 37 38 39 39 39 39 40 41 42 42 42 42 42 42 42 42 42 42 42 42 41 40 40 39 40 40 41 41 42 42 42 41 40 40 40 41 42 43 44 44 44 43 43 43 43 42 41 39 38 36 35 35 36 38 39 40 39 36 33 30 29 29 30
31 30 30 30 29 29 28 27 26 25 25 25 25 25 26 27 28 28 29 30 30 31 31 31 30 30 30 30 30 31 31 32 33 33 34 34 34 35 35 35 36 36 36 36 36 36 36 38 39 40 40 40 40 40 39 39 39 39 39 38 37 36 36 36 35 35 35 35 33 32 32 33 33 34 35 35 35 33 31 29 28 29 30 31 32
20 20 19 18 18 17 17 17 17 17 17 17 18 18 19 20 20 21 21 22 22 22 23 23 23 22 22 23 23 23 24 25 25 26 27 27 27 28 28 28 29 30 31 31 32 32 33 35 36 36 36 36 36 35 35 34 34 33 31 29 27 26 26 26 26 26 27 27 27 27 28 30 31 32 32 31 29 28 27 28 29 31 32 32 31
11 11 10 10 10 10 10 10 11 11 11 12 12 13 13 13 14 14 15 15 16 16 16 16 16 16 16 16 16 16 16 17 17 18 18 19 19 20 20 20 21 22 22 22 23 23 24 25 26 26 27 27 27 26 26 26 26 25 24 23 21 21 21 21 21 22 22 23 24 25 26 27 27 27 27 26 26 27 29 30 31 31 31 31 30
Wind_Direction
273 275 276 277 277 277 276 275 274 274 274 274 274 275 275 274 275 274 274 274 273 272 272 271 270 270 271 271 272 273 274 274 274 274 274 274 274 274 273 273 273 274 275 275 275 276 277 278 278 278 277 276 275 274 274 274 274 273 274 276 277 278 279 279 280 282 283 282 281 282 282 282 284 286 288 289 289 287 285 283 283 283 282 278 273
273 272 272 273 274 276 277 277 277 277 277 276 276 276 275 275 275 274 274 273 272 271 270 269 268 267 268 268 269 270 271 272 272 272 272 273 273 273 273 274 275 276 276 277 278 278 279 279 279 278 277 276 275 274 273 273 272 271 271 272 273 275 277 279 281 282 283 282 282 282 283 283 285 287 288 290 289 287 285 284 284 284 281 276 273
281 280 278 277 276 276 276 277 278 279 279 280 280 279 278 278 278 277 277 275 273 272 271 269 268 267 267 267 268 268 269 270 270 270 271 271 272 273 274 275 276 277 278 280 281 281 281 280 280 279 277 276 274 273 273 273 272 272 271 272 273 274 277 279 280 281 282 282 281 281 282 283 284 286 287 288 287 286 284 284 285 285 278 269 269
284 285 284 283 282 280 280 279 279 279 279 279 280 281 281 281 280 279 279 277 275 273 271 271 270 269 269 269 269 270 271 271 271 271 272 272 274 275 276 278 279 280 281 282 282 282 281 280 280 278 275 274 273 272 273 273 273 273 273 274 274 275 277 278 278 279 279 279 279 280 281 282 282 284 286 287 285 284 283 284 286 282 272 267 269
287 287 287 287 286 286 284 283 282 281 281 281 280 280 281 281 281 280 279 278 275 273 272 271 271 271 271 271 271 271 272 273 273 274 276 277 278 279 280 281 282 283 284 283 282 280 279 279 278 276 274 272 272 273 273 273 273 272 273 273 274 275 275 276 276 277 277 277 278 279 279 280 281 283 284 285 282 281 280 281 281 275 265 264 269
287 287 289 289 289 290 288 287 285 283 283 282 282 281 280 279 280 280 280 279 276 273 271 270 270 271 271 271 271 272 273 274 275 277 279 281 282 283 283 284 285 285 285 284 283 281 280 279 278 276 274 273 273 273 272 272 271 271 272 272 273 274 274 274 274 275 275 275 276 276 276 277 279 281 283 282 279 279 280 275 272 272 267 260 262
288 288 289 289 290 291 291 290 288 286 284 282 281 281 280 279 278 278 278 278 276 273 269 267 266 267 269 270 271 272 273 273 275 277 280 282 283 284 285 286 285 285 285 284 284 283 282 282 280 278 276 275 274 273 273 272 272 272 272 273 273 274 273 273 273 273 273 274 274 275 276 277 278 280 280 278 277 279 280 274 268 272 272 264 261
290 290 290 290 291 291 291 291 290 289 287 285 282 279 278 277 276 276 276 277 276 272 267 263 262 264 267 269 271 272 273 274 275 278 280 282 284 285 286 287 287 287 287 287 286 285 285 284 283 281 279 278 276 275 274 273 273 273 273 274 274 274 274 274 274 274 273 273 274 275 276 277 278 279 277 277 279 281 280 273 267 268 267 262 260
292 292 291 292 292 291 291 291 290 289 288 287 285 281 278 276 275 274 275 275 275 271 265 262 261 262 264 267 270 271 273 275 277 280 282 284 286 287 288 289 290 290 291 291 291 290 289 288 286 284 282 280 278 276 275 275 275 275 275 275 275 275 275 275 275 275 275 275 275 276 276 277 277 277 277 278 281 281 277 271 271 271 266 259 257
293 293 293 293 293 292 291 291 290 290 289 287 286 283 280 278 276 275 274 273 273 271 266 262 261 262 262 263 266 269 271 274 277 280 282 284 286 287 288 289 290 292 294 295 296 296 295 292 289 286 284 282 280 278 277 276 276 277 277 277 277 277 277 277 277 277 277 277 277 277 277 277 278 278 279 281 282 279 274 271 271 272 269 263 259
294 293 293 294 294 293 293 292 291 291 289 287 286 283 281 278 276 276 275 274 273 271 269 265 262 262 263 262 264 266 269 272 274 277 279 281 283 285 286 287 288 290 292 294 297 299 299 297 294 291 286 283 282 280 278 277 277 277 278 278 279 278 278 278 278 278 277 277 278 277 277 278 279 279 278 278 275 271 269 267 263 263 267 267 265
295 295 295 295 295 295 295 293 292 291 290 287 285 283 281 278 275 274 274 274 273 272 271 268 265 263 263 263 264 265 266 268 270 273 275 278 280 282 282 283 284 286 288 289 292 296 298 299 298 295 291 287 284 282 280 279 278 278 277 277 277 277 278 278 278 277 277 277 276 276 277 278 278 276 273 272 268 264 265 266 264 262 264 266 269
296 296 296 296 295 296 295 295 294 292 290 287 285 282 280 277 274 272 271 272 273 273 272 271 269 266 264 263 263 264 265 266 267 269 271 272 274 276 277 279 280 281 283 285 288 291 295 297 296 296 294 290 285 283 282 281 280 278 277 276 275 276 276 277 277 277 277 277 276 276 278 278 276 273 272 272 268 263 263 265 265 263 263 265 268
295 295 295 295 294 294 294 294 295 294 291 288 285 282 278 276 273 272 271 270 270 271 272 272 272 270 268 266 264 263 264 264 264 266 267 269 269 270 271 273 274 276 279 282 284 287 292 295 294 294 294 291 287 284 282 282 281 279 277 276 275 275 275 276 275 275 276 276 276 277 277 275 273 271 270 270 268 266 266 265 262 260 260 263 265
294 295 295 294 293 293 292 293 294 293 291 289 286 283 280 277 275 273 272 271 272 272 272 272 272 272 271 269 268 266 266 265 265 265 265 267 267 268 268 270 271 272 275 279 282 284 289 292 291 290 291 291 290 286 282 282 281 280 278 276 275 275 275 275 274 273 274 274 273 273 271 268 266 265 265 266 266 266 266 263 258 257 260 262 264
292 293 293 293 292 291 290 290 291 291 289 287 285 284 283 282 282 280 277 275 275 274 274 274 274 274 273 272 271 269 268 267 267 266 266 266 266 266 267 269 271 272 274 276 278 281 285 288 288 287 288 290 291 289 284 282 280 279 278 276 275 274 274 273 273 272 271 271 269 268 265 263 261 262 263 266 267 265 262 259 257 258 261 261 262
291 290 291 291 290 289 288 287 287 287 286 284 283 285 287 287 287 287 285 283 281 279 278 276 276 277 276 276 275 273 271 269 268 266 265 265 265 264 265 266 268 271 273 274 275 277 281 284 284 284 285 288 289 288 285 282 279 278 277 276 274 272 271 270 270 270 268 267 266 264 263 263 263 264 265 267 268 265 260 256 257 259 259 259 261
289 289 290 290 290 289 287 285 284 284 284 284 283 285 287 289 290 290 290 290 289 287 285 282 280 280 280 279 279 277 274 273 271 269 267 266 265 264 264 264 265 267 269 271 273 274 277 280 281 282 284 286 287 286 283 281 279 277 276 275 273 271 270 269 268 266 264 263 262 261 262 263 262 263 265 266 266 263 257 255 256 256 256 257 259
288 289 290 290 291 290 288 286 284 283 283 284 285 286 287 289 291 292 292 292 292 291 290 288 286 284 283 283 283 281 278 276 274 272 270 269 267 266 265 265 265 266 266 267 269 271 272 275 278 280 282 285 285 284 281 279 277 275 273 272 270 270 270 269 266 262 260 259 260 260 260 261 259 260 261 263 263 260 255 254 255 255 254 255 256
290 291 292 291 291 290 289 287 286 285 285 286 287 289 290 290 291 291 292 292 292 292 291 290 289 288 286 286 286 285 284 281 278 275 272 271 270 269 268 267 267 267 266 266 267 267 268 270 273 276 280 283 283 281 278 275 274 273 271 269 269 270 269 266 264 261 259 258 258 259 259 259 258 258 259 260 259 257 254 255 256 256 255 254 254
292 291 291 291 290 288 287 286 286 286 287 287 289 290 291 291 291 291 291 291 291 292 291 291 290 289 288 287 286 286 286 285 283 281 278 275 273 272 271 271 271 270 269 268 267 267 266 266 268 272 276 279 280 279 275 272 271 270 269 269 269 269 266 264 262 261 260 259 258 258 258 258 259 259 259 259 257 255 255 256 257 256 255 253 253
289 288 287 287 288 286 284 282 283 284 284 284 286 287 289 289 290 290 290 289 289 290 290 291 290 289 288 287 286 286 287 287 286 286 284 281 278 276 274 274 274 274 272 270 269 268 267 265 266 268 272 274 276 276 273 270 268 268 268 269 268 267 265 264 263 261 261 260 260 260 260 260 260 260 260 260 258 256 254 255 255 255 254 253 252
282 282 283 283 285 285 282 281 282 283 281 280 281 282 284 286 288 289 290 290 289 289 290 290 290 290 289 287 286 285 286 286 287 287 288 288 285 283 280 279 278 278 277 275 273 272 270 267 266 267 269 271 273 273 271 269 267 268 268 269 269 268 266 265 263 262 261 260 260 260 260 261 262 262 261 261 259 255 253 253 254 255 254 252 251
280 281 281 281 281 281 278 279 284 285 282 281 281 281 283 285 287 290 292 293 292 292 292 292 292 291 290 288 286 286 285 286 287 287 288 290 290 291 290 287 285 284 282 280 279 277 275 272 270 268 269 270 271 271 269 267 267 267 268 268 268 268 268 267 266 264 262 262 261 261 260 260 261 262 262 262 262 259 255 254 255 256 255 252 250
286 287 287 285 285 282 275 272 277 283 284 284 282 282 285 287 288 291 294 296 296 295 296 296 296 294 292 290 288 287 287 288 288 288 289 290 291 293 294 294 292 290 288 285 283 281 279 277 275 273 271 271 271 270 269 268 267 267 267 267 267 269 269 270 269 268 267 267 266 265 264 263 263 263 262 262 264 264 261 260 259 259 257 254 250
286 288 289 289 290 289 283 276 275 278 281 282 282 284 287 290 291 293 295 298 298 298 299 299 299 298 297 295 293 292 291 290 290 290 291 293 293 294 295 295 296 295 293 290 287 285 283 282 280 279 278 276 274 273 271 269 267 266 266 267 268 269 269 269 270 270 270 270 270 269 267 263 261 263 262 260 259 261 261 263 264 263 261 257 251
284 285 285 285 285 286 287 285 282 281 281 282 284 287 290 293 295 295 297 298 298 298 299 299 300 300 299 297 296 295 294 294 294 294 295 296 296 297 298 298 298 298 297 295 292 290 289 287 286 286 285 283 281 279 276 272 268 267 267 268 268 268 268 267 267 266 267 269 269 268 267 263 261 262 262 257 253 253 256 260 263 264 263 259 251
282 282 282 282 282 281 281 281 280 281 281 282 284 287 289 290 292 293 295 297 298 298 298 297 298 298 298 297 297 296 295 296 297 297 297 297 298 299 301 301 301 301 301 300 298 297 296 294 293 293 292 290 288 285 282 278 275 273 272 270 269 268 269 268 267 266 267 268 268 268 267 266 265 266 264 259 255 253 255 259 263 264 263 257 248
279 279 279 280 281 281 281 280 279 279 279 279 280 283 286 288 290 290 292 295 296 296 297 296 296 296 295 295 295 294 295 295 296 296 297 297 297 298 300 302 303 303 304 304 303 303 304 303 302 300 299 297 294 291 289 285 281 278 275 273 271 270 270 270 269 269 269 268 268 269 271 270 268 268 268 267 264 261 260 263 266 267 261 252 245
277 279 280 281 282 283 283 283 283 282 282 280 279 280 281 284 287 289 291 293 294 295 295 295 295 295 294 293 292 292 293 293 293 294 294 294 295 296 297 299 301 302 303 304 304 306 309 310 309 307 304 302 299 297 295 292 287 282 278 276 276 276 274 273 271 268 266 266 265 267 269 269 268 267 267 267 266 265 265 265 265 263 256 248 245
279 279 280 282 283 283 283 284 284 284 284 283 283 282 280 280 281 284 288 290 292 293 293 293 293 293 292 292 291 290 290 291 291 291 291 291 291 292 294 295 296 298 299 300 301 304 307 309 310 310 308 306 304 301 298 295 292 288 283 281 281 281 282 281 278 272 269 266 264 264 265 266 265 264 264 265 264 263 262 260 256 253 251 247 245
278 279 280 281 282 282 283 283 283 284 284 284 285 285 284 283 282 282 284 287 288 290 290 290 290 290 290 290 290 289 289 288 288 289 289 288 288 289 289 291 292 293 294 295 297 300 303 305 307 308 309 309 307 305 302 298 295 292 289 286 285 285 287 287 285 279 274 268 264 263 265 266 265 264 262 262 261 258 255 253 249 247 246 245 244
278 278 278 278 279 280 281 282 282 282 283 284 284 285 285 285 284 284 284 284 285 286 287 287 287 287 287 287 288 288 288 287 286 286 286 286 287 287 287 287 288 289 290 291 293 295 297 299 302 303 305 306 307 306 305 302 298 295 291 288 287 287 288 287 286 284 281 275 268 266 267 268 268 265 261 259 258 254 251 252 252 250 246 245 244
280 279 278 278 278 278 279 280 280 281 281 282 283 283 284 285 285 285 285 285 284 284 284 284 285 285 285 285 285 285 285 285 285 285 284 284 284 285 285 285 285 286 287 288 290 291 292 294 296 298 300 302 303 304 305 304 301 297 294 290 288 287 286 286 286 287 286 282 275 270 268 268 267 263 259 257 254 250 248 248 250 253 252 247 245
281 281 280 280 280 279 279 280 280 280 281 281 282 282 283 283 284 284 285 285 286 286 285 285 285 284 284 284 284 284 284 284 284 284 284 284 284 284 284 284 284 284 285 285 287 288 289 290 291 293 295 296 298 300 301 302 301 299 296 293 290 287 286 286 288 288 287 284 279 272 269 269 266 260 256 255 252 250 248 246 249 257 257 249 245
282 282 282 282 282 281 281 281 282 282 282 282 282 282 283 283 284 284 284 285 285 286 286 286 286 286 285 285 284 284 284 284 284 284 284 284 284 284 284 284 284 284 284 284 285 285 287 288 289 290 291 292 294 295 297 298 299 299 297 294 291 288 286 286 287 287 285 282 278 273 270 270 266 257 252 252 252 250 248 247 251 258 256 248 244
283 283 283 283 283 282 283 283 283 283 284 284 284 284 284 284 285 285 285 285 285 285 286 286 286 286 286 286 285 285 284 283 283 283 283 283 283 283 283 283 284 284 284 284 284 284 285 285 286 287 288 289 290 292 293 294 295 295 295 294 292 289 287 286 285 284 281 278 275 272 270 268 264 255 250 252 253 251 247 247 252 256 252 246 243
284 284 284 284 284 284 284 284 284 284 284 285 285 285 285 285 285 285 285 285 286 286 286 286 286 286 287 287 287 286 285 284 283 282 282 282 282 282 282 282 282 283 283 284 284 284 284 284 284 285 285 286 287 288 289 290 291 292 292 292 292 290 288 286 284 283 279 275 271 270 268 265 261 255 251 252 254 252 250 252 257 257 250 244 241
286 286 287 286 286 286 286 286 286 286 286 286 287 287 287 286 286 286 286 285 285 285 285 285 285 285 285 286 286 286 286 285 285 284 283 282 281 281 280 280 280 280 281 281 282 282 282 283 283 283 283 284 284 285 285 286 287 288 288 289 290 290 288 287 284 282 278 273 268 265 262 260 259 256 253 253 255 255 255 257 258 254 247 241 240
287 287 287 287 288 288 288 288 288 288 289 289 288 288 288 288 288 287 287 286 286 285 284 284 283 283 283 283 283 283 283 283 283 283 283 283 282 281 279 279 278 278 278 278 279 279 280 280 280 281 281 282 282 282 283 283 283 284 284 285 286 286 286 285 282 280 277 272 266 261 258 258 258 258 256 256 257 258 259 258 254 248 242 237 235
288 288 288 288 289 289 289 289 289 289 289 289 289 288 288 288 287 287 287 287 286 286 285 284 283 282 281 280 279 279 279 279 280 280 280 281 281 280 279 278 277 277 276 276 276 276 277 277 277 278 278 279 279 279 280 280 280 281 281 281 281 281 282 281 280 278 276 272 265 260 258 258 261 262 262 260 259 259 258 252 246 242 238 234 232
287 288 288 289 289 289 290 290 290 290 290 289 289 289 289 289 288 288 288 288 288 287 287 286 285 284 282 280 278 276 275 275 275 276 276 276 276 277 277 277 276 276 275 275 274 274 274 274 274 275 275 275 275 276 276 276 277 278 278 277 276 276 277 278 278 276 275 272 265 259 256 258 262 265 265 261 257 255 252 246 240 238 237 234 232
287 287 288 289 289 290 290 290 290 291 290 290 290 290 289 289 289 288 288 288 288 288 288 288 287 286 284 282 280 278 276 274 273 273 272 273 273 273 273 273 273 273 273 272 272 271 271 271 271 271 271 271 271 272 272 272 274 275 275 274 273 272 272 273 273 272 272 269 264 257 255 258 263 266 264 257 251 248 245 242 239 239 238 234 231
287 287 287 288 288 289 289 290 290 291 291 291 290 290 289 289 288 288 288 288 288 288 288 288 288 287 286 284 282 280 278 277 275 274 273 272 272 272 272 271 271 271 271 270 270 269 268 267 267 267 268 268 268 268 268 269 270 271 271 271 270 270 270 269 269 268 267 264 260 254 252 256 262 264 259 251 245 242 241 241 240 239 236 232 229
286 286 286 287 287 288 289 290 291 291 291 291 291 290 289 288 288 288 288 288 288 288 287 286 286 285 285 284 282 280 279 278 277 276 275 273 272 272 271 270 269 269 269 268 268 267 266 265 264 264 264 265 265 266 267 268 269 269 269 267 267 267 267 267 266 264 262 259 255 251 250 254 258 257 252 246 243 243 243 241 238 234 231 229 228
285 286 286 287 288 289 290 291 292 292 292 292 291 290 289 289 290 291 291 291 291 290 288 287 286 285 285 284 283 282 280 279 277 276 275 274 273 272 271 269 269 268 268 268 268 267 266 265 264 264 265 267 268 269 271 272 272 271 268 266 265 264 264 264 262 261 259 255 251 248 248 249 250 249 247 246 246 246 243 238 233 229 227 227 229
285 285 286 287 288 289 290 291 291 292 292 291 291 291 292 294 295 297 297 296 295 294 292 290 289 287 286 284 282 281 280 279 278 277 276 275 274 273 271 270 268 268 268 268 268 268 268 267 267 268 269 270 270 271 273 275 275 273 269 267 264 262 261 259 257 255 254 251 248 245 244 243 242 244 247 248 246 243 238 234 230 227 226 227 229
287 288 288 289 289 290 290 290 290 291 292 293 294 296 298 299 300 299 298 297 296 294 293 292 291 291 290 288 286 285 283 282 282 281 280 279 278 276 274 272 270 269 268 268 267 268 268 268 268 268 268 268 268 268 270 272 271 269 266 264 261 259 258 256 254 252 250 248 246 245 244 243 243 244 245 244 240 236 233 229 227 226 226 228 230
293 294 294 293 293 292 292 292 293 295 298 300 302 304 305 305 304 304 303 302 301 300 300 300 299 300 300 299 297 296 294 292 290 289 287 285 284 282 280 278 276 274 272 270 269 269 269 268 267 266 264 264 264 265 265 265 265 264 262 262 261 259 258 256 254 251 250 249 248 248 248 247 245 241 237 234 231 229 226 224 224 226 228 231 232
298 297 297 297 297 297 299 301 303 307 310 312 313 315 315 315 315 315 315 315 315 315 315 314 314 314 313 311 308 306 303 300 298 295 292 289 287 285 283 281 279 276 274 273 271 270 269 268 267 265 264 264 264 264 264 264 265 264 264 263 263 262 260 259 257 255 254 252 251 249 247 243 239 233 229 225 223 221 221 223 226 230 232 233 232
298 299 300 301 302 304 307 311 315 318 320 321 323 325 326 328 332 334 335 335 335 335 336 337 338 338 337 335 331 327 322 316 309 303 298 293 289 286 283 280 278 276 274 273 272 271 271 270 270 269 269 269 270 270 270 270 270 268 266 265 263 261 259 258 256 253 249 245 241 238 235 231 227 223 221 219 220 223 227 230 232 233 233 232 229
Height
3093 3092 3092 3090 3089 3089 3088 3087 3086 3085 3085 3084 3084 3083 3083 3082 3081 3080 3079 3078 3077 3075 3074 3073 3073 3072 3071 3070 3070 3070 3070 3070 3069 3068 3067 3066 3066 3066 3066 3065 3064 3064 3064 3064 3063 3062 3062 3061 3060 3060 3060 3060 3060 3061 3061 3061 3061 3060 3059 3057 3056 3055 3054 3052 3049 3047 3049 3050 3049 3050 3051 3050 3049 3048 3047 3046 3045 3044 3043 3041 3040 3039 3038 3037 3037
3090 3089 3088 3087 3086 3085 3084 3083 3082 3082 3081 3080 3080 3079 3079 3078 3077 3075 3074 3074 3072 3071 3069 3068 3067 3066 3066 3065 3065 3065 3065 3064 3064 3063 3062 3061 3061 3060 3060 3060 3059 3059 3058 3058 3058 3057 3056 3055 3054 3054 3054 3053 3053 3053 3054 3055 3054 3054 3053 3052 3051 3050 3049 3048 3045 3042 3042 3043 3043 3043 3043 3042 3042 3041 3040 3039 3039 3038 3036 3035 3035 3034 3033 3033 3032
3086 3085 3085 3084 3082 3081 3080 3080 3079 3078 3077 3077 3076 3075 3074 3073 3072 3071 3070 3069 3068 3067 3065 3064 3063 3062 3061 3060 3060 3060 3060 3059 3059 3058 3057 3056 3055 3055 3055 3054 3053 3053 3053 3052 3052 3051 3050 3049 3048 3049 3049 3047 3046 3047 3047 3047 3047 3047 3047 3047 3046 3045 3045 3043 3041 3038 3037 3037 3036 3036 3036 3036 3035 3035 3034 3033 3033 3032 3031 3030 3029 3028 3028 3029 3029
3083 3082 3081 3080 3079 3078 3077 3076 3075 3074 3074 3073 3072 3071 3070 3069 3068 3067 3066 3065 3064 3063 3062 3060 3059 3058 3057 3057 3056 3056 3055 3055 3054 3053 3053 3052 3051 3051 3050 3050 3049 3048 3048 3048 3047 3046 3044 3043 3043 3044 3043 3041 3041 3041 3041 3041 3041 3041 3040 3040 3040 3039 3039 3038 3036 3034 3032 3031 3030 3030 3030 3029 3029 3029 3028 3028 3027 3026 3025 3025 3024 3024 3024 3025 3024
3079 3078 3077 3076 3075 3074 3073 3072 3071 3070 3069 3069 3068 3067 3066 3065 3064 3063 3062 3061 3060 3059 3058 3057 3056 3055 3054 3053 3052 3052 3051 3051 3050 3049 3049 3048 3048 3047 3047 3046 3045 3044 3043 3043 3042 3041 3039 3038 3038 3038 3037 3036 3036 3036 3036 3036 3035 3035 3034 3034 3034 3033 3033 3032 3030 3029 3027 3025 3025 3025 3024 3023 3023 3023 3023 3023 3022 3021 3021 3020 3020 3019 3020 3020 3020
3074 3073 3072 3072 3071 3070 3069 3067 3066 3065 3064 3063 3063 3062 3061 3060 3059 3058 3057 3057 3056 3055 3054 3053 3052 3051 3050 3049 3048 3048 3047 3046 3046 3045 3045 3045 3044 3043 3042 3042 3041 3040 3039 3038 3037 3036 3035 3034 3034 3033 3032 3031 3031 3031 3031 3030 3030 3029 3028 3028 3028 3027 3026 3025 3024 3023 3021 3020 3020 3019 3018 3018 3018 3017 3018 3018 3017 3016 3016 3015 3015 3015 3015 3016 3016
3069 3068 3067 3066 3066 3065 3064 3062 3061 3060 3059 3058 3057 3056 3056 3055 3054 3053 3052 3051 3051 3051 3050 3049 3048 3047 3046 3045 3044 3044 3043 3042 3041 3041 3041 3041 3040 3039 3038 3037 3036 3035 3034 3033 3032 3031 3030 3029 3029 3028 3027 3027 3026 3026 3025 3024 3024 3023 3022 3022 3021 3020 3019 3018 3017 3016 3015 3014 3013 3012 3012 3012 3012 3012 3013 3012 3011 3011 3010 3010 3011 3011 3011 3011 3011
3063 3062 3062 3061 3060 3059 3058 3057 3056 3055 3054 3053 3052 3050 3050 3049 3048 3047 3047 3046 3046 3045 3044 3044 3043 3042 3041 3041 3040 3040 3038 3038 3037 3037 3037 3037 3036 3035 3034 3033 3031 3030 3029 3028 3027 3026 3025 3025 3024 3023 3023 3022 3021 3021 3019 3019 3017 3016 3016 3016 3015 3014 3012 3011 3010 3010 3009 3008 3007 3007 3007 3006 3006 3007 3007 3007 3006 3006 3006 3005 3006 3006 3006 3005 3005
3057 3056 3056 3055 3054 3053 3052 3052 3051 3050 3049 3047 3046 3045 3044 3043 3042 3042 3041 3041 3040 3039 3039 3038 3037 3037 3037 3036 3035 3034 3033 3033 3033 3033 3033 3032 3031 3030 3029 3028 3027 3025 3024 3023 3022 3021 3020 3020 3019 3018 3018 3017 3016 3015 3014 3013 3012 3011 3010 3010 3009 3008 3006 3005 3004 3004 3003 3003 3002 3002 3001 3000 3001 3002 3001 3001 3001 3001 3002 3001 3001 3002 3001 3000 3001
3052 3051 3050 3049 3048 3047 3046 3046 3045 3044 3043 3042 3041 3040 3039 3037 3036 3036 3035 3035 3034 3033 3033 3032 3032 3032 3031 3031 3030 3029 3028 3028 3028 3028 3027 3027 3026 3025 3024 3023 3022 3021 3019 3018 3017 3016 3016 3015 3014 3013 3012 3012 3011 3010 3009 3008 3007 3006 3005 3004 3003 3002 3000 2999 2998 2998 2997 2996 2996 2997 2995 2994 2996 2996 2996 2996 2997 2996 2997 2997 2997 2997 2996 2995 2996
3046 3045 3044 3043 3041 3040 3040 3039 3038 3038 3037 3036 3035 3034 3033 3032 3031 3030 3029 3028 3028 3027 3027 3026 3026 3026 3026 3025 3024 3023 3023 3023 3023 3022 3022 3021 3020 3020 3019 3018 3017 3015 3014 3013 3012 3011 3010 3009 3008 3007 3006 3006 3005 3004 3003 3001 3001 3000 3000 2999 2997 2995 2994 2993 2993 2992 2991 2990 2990 2990 2989 2989 2990 2990 2990 2991 2992 2992 2992 2993 2993 2992 2991 2991 2992
3040 3039 3038 3037 3035 3034 3033 3032 3032 3031 3030 3029 3028 3027 3027 3026 3025 3024 3024 3023 3021 3021 3020 3020 3020 3020 3019 3019 3018 3018 3017 3017 3016 3016 3016 3015 3014 3013 3013 3012 3011 3010 3009 3008 3007 3006 3005 3003 3002 3001 3000 2999 2998 2997 2996 2995 2994 2994 2993 2992 2990 2989 2988 2987 2987 2986 2985 2985 2984 2983 2983 2984 2984 2984 2985 2986 2986 2987 2987 2986 2986 2986 2986 2987 2987
3034 3033 3032 3030 3029 3027 3026 3025 3024 3023 3023 3022 3022 3021 3020 3019 3018 3018 3017 3017 3016 3015 3014 3013 3013 3013 3012 3012 3012 3011 3011 3011 3011 3010 3009 3008 3008 3007 3006 3005 3005 3004 3004 3003 3002 3001 3000 2998 2997 2996 2995 2994 2992 2991 2989 2989 2988 2987 2986 2985 2983 2982 2982 2982 2981 2980 2979 2979 2978 2978 2978 2978 2977 2978 2980 2980 2980 2980 2980 2980 2980 2981 2981 2982 2983
3029 3027 3026 3024 3023 3022 3020 3018 3017 3016 3015 3015 3014 3014 3013 3012 3011 3010 3010 3010 3009 3009 3009 3008 3007 3006 3005 3004 3004 3004 3005 3005 3004 3003 3002 3001 3000 2999 2999 2998 2998 2998 2998 2997 2996 2995 2994 2993 2991 2990 2989 2988 2987 2985 2984 2983 2982 2980 2979 2978 2977 2977 2976 2975 2975 2974 2974 2973 2972 2972 2973 2972 2972 2973 2974 2974 2973 2974 2974 2974 2975 2976 2976 2977 2977
3023 3022 3020 3018 3017 3016 3014 3013 3012 3010 3009 3008 3007 3006 3005 3005 3004 3004 3004 3003 3003 3002 3002 3001 3001 3000 2998 2997 2997 2997 2997 2997 2996 2996 2995 2994 2993 2992 2991 2991 2991 2990 2990 2990 2990 2990 2989 2987 2985 2983 2982 2981 2980 2979 2978 2976 2975 2973 2972 2971 2970 2970 2969 2969 2969 2969 2968 2968 2967 2967 2967 2967 2967 2968 2969 2968 2968 2969 2969 2969 2970 2970 2971 2971 2972
3019 3017 3015 3013 3012 3010 3009 3008 3007 3005 3004 3002 3001 3000 2999 2998 2997 2997 2997 2997 2996 2996 2995 2994 2994 2993 2992 2991 2990 2990 2990 2989 2988 2988 2987 2986 2985 2984 2984 2983 2983 2983 2983 2983 2983 2983 2983 2981 2979 2977 2976 2974 2974 2973 2972 2970 2968 2966 2965 2964 2964 2963 2962 2962 2963 2963 2962 2962 2961 2962 2962 2962 2962 2963 2963 2963 2963 2964 2964 2964 2964 2965 2966 2966 2967
3014 3012 3011 3009 3007 3006 3004 3003 3002 3000 2999 2997 2996 2994 2993 2992 2991 2990 2990 2990 2990 2989 2989 2988 2988 2987 2986 2985 2984 2984 2983 2982 2980 2980 2979 2978 2977 2976 2976 2976 2975 2975 2976 2976 2976 2976 2976 2975 2973 2971 2970 2969 2968 2967 2965 2963 2961 2960 2959 2958 2957 2956 2956 2957 2957 2957 2956 2956 2956 2957 2957 2957 2957 2957 2957 2958 2958 2958 2958 2958 2959 2960 2961 2961 2962
3008 3007 3005 3004 3002 3001 3000 2999 2997 2996 2994 2992 2991 2989 2988 2987 2986 2985 2984 2984 2983 2983 2983 2982 2982 2981 2980 2979 2978 2977 2977 2975 2973 2972 2971 2970 2969 2968 2968 2967 2967 2967 2968 2968 2968 2968 2968 2967 2966 2964 2963 2963 2962 2961 2959 2957 2955 2954 2953 2952 2951 2950 2950 2952 2952 2951 2951 2950 2951 2951 2951 2952 2952 2952 2952 2953 2953 2953 2953 2953 2954 2955 2955 2956 2957
3003 3002 3000 2999 2998 2996 2995 2994 2993 2991 2990 2988 2986 2985 2983 2982 2981 2980 2979 2978 2978 2978 2977 2976 2976 2975 2974 2973 2972 2972 2971 2970 2967 2965 2964 2963 2961 2960 2959 2959 2959 2960 2959 2959 2960 2960 2960 2960 2959 2958 2957 2957 2956 2955 2954 2952 2950 2949 2948 2946 2944 2944 2946 2947 2946 2945 2945 2945 2945 2946 2946 2946 2946 2947 2947 2947 2947 2947 2948 2948 2949 2949 2950 2951 2952
2998 2997 2995 2994 2993 2992 2991 2990 2988 2987 2985 2984 2982 2980 2979 2977 2976 2975 2974 2973 2972 2972 2971 2971 2970 2970 2969 2968 2967 2966 2965 2963 2962 2960 2958 2956 2955 2953 2952 2951 2951 2951 2951 2951 2951 2951 2952 2952 2952 2951 2951 2950 2950 2949 2948 2946 2944 2943 2942 2940 2939 2940 2941 2940 2939 2939 2940 2939 2940 2940 2940 2940 2940 2941 2941 2941 2941 2942 2942 2943 2943 2944 2944 2945 2946
2993 2992 2991 2990 2989 2988 2987 2985 2984 2982 2981 2979 2978 2977 2975 2973 2971 2970 2969 2968 2967 2966 2966 2965 2965 2964 2963 2962 2961 2959 2958 2956 2955 2953 2952 2951 2949 2947 2946 2945 2944 2943 2943 2943 2943 2943 2943 2943 2943 2943 2943 2943 2943 2942 2941 2940 2939 2937 2936 2935 2935 2936 2935 2934 2934 2934 2933 2933 2934 2934 2934 2934 2934 2934 2935 2935 2936 2936 2936 2937 2938 2938 2939 2939 2940
2988 2987 2986 2985 2984 2983 2982 2981 2979 2978 2977 2975 2974 2973 2971 2969 2967 2966 2965 2964 2962 2961 2960 2959 2959 2958 2957 2956 2955 2953 2951 2950 2949 2947 2946 2944 2942 2941 2940 2939 2937 2936 2936 2936 2935 2935 2935 2935 2935 2935 2935 2935 2935 2935 2934 2933 2932 2931 2930 2930 2930 2929 2928 2928 2928 2927 2927 2928 2928 2928 2928 2928 2928 2929 2929 2930 2930 2930 2931 2932 2932 2932 2933 2934 2934
2983 2982 2980 2979 2978 2978 2977 2976 2975 2973 2972 2971 2970 2969 2968 2966 2964 2962 2961 2959 2958 2957 2955 2954 2953 2952 2952 2950 2949 2947 2946 2945 2943 2942 2940 2938 2936 2935 2934 2933 2931 2930 2929 2930 2929 2928 2927 2927 2927 2927 2927 2927 2927 2928 2927 2926 2925 2924 2925 2925 2924 2923 2922 2922 2922 2921 2921 2921 2921 2921 2922 2922 2923 2923 2924 2924 2924 2924 2925 2925 2926 2926 2926 2927 2928
2978 2977 2976 2974 2973 2972 2972 2971 2970 2969 2968 2967 2966 2965 2964 2963 2961 2959 2957 2956 2954 2953 2951 2949 2948 2947 2946 2945 2943 2942 2940 2939 2937 2936 2934 2932 2931 2929 2928 2926 2925 2923 2923 2923 2922 2921 2920 2920 2920 2919 2919 2919 2919 2919 2919 2919 2918 2918 2918 2918 2917 2916 2916 2916 2916 2915 2915 2915 2915 2915 2916 2916 2917 2917 2917 2918 2918 2918 2918 2919 2919 2919 2920 2921 2922
2973 2972 2971 2970 2968 2967 2967 2966 2965 2964 2964 2963 2962 2961 2960 2958 2957 2956 2954 2952 2950 2949 2947 2945 2943 2942 2940 2939 2938 2937 2935 2934 2932 2930 2928 2927 2925 2924 2922 2921 2919 2918 2917 2916 2916 2915 2914 2913 2913 2912 2911 2911 2911 2910 2911 2911 2911 2911 2911 2911 2910 2910 2910 2910 2910 2910 2910 2910 2910 2910 2909 2910 2910 2910 2910 2911 2911 2911 2911 2912 2912 2913 2913 2914 2916
2969 2968 2967 2966 2964 2963 2962 2961 2960 2959 2959 2958 2957 2956 2955 2954 2952 2951 2949 2948 2946 2945 2943 2941 2939 2938 2936 2935 2933 2932 2931 2929 2927 2925 2923 2922 2920 2919 2917 2915 2914 2912 2912 2911 2910 2909 2908 2907 2906 2905 2904 2904 2903 2902 2902 2903 2903 2903 2903 2903 2903 2903 2903 2903 2903 2904 2904 2904 2904 2904 2903 2903 2903 2903 2903 2904 2904 2905 2905 2906 2906 2907 2907 2908 2910
2965 2964 2963 2962 2961 2959 2958 2957 2956 2955 2954 2953 2952 2951 2950 2949 2947 2946 2944 2943 2941 2940 2938 2937 2935 2933 2932 2931 2929 2928 2927 2925 2923 2921 2919 2917 2916 2914 2912 2910 2909 2907 2906 2905 2904 2904 2903 2902 2901 2900 2898 2898 2896 2895 2895 2895 2894 2894 2895 2895 2896 2896 2896 2896 2896 2897 2897 2897 2897 2897 2896 2896 2896 2896 2897 2897 2898 2899 2899 2899 2900 2900 2901 2902 2904
2960 2959 2958 2957 2956 2955 2954 2953 2952 2951 2950 2949 2947 2946 2945 2943 2942 2941 2939 2938 2936 2935 2934 2932 2931 2929 2927 2926 2925 2924 2923 2921 2919 2917 2915 2913 2912 2910 2908 2906 2905 2903 2902 2901 2899 2898 2897 2896 2895 2894 2893 2891 2890 2889 2889 2888 2888 2887 2888 2888 2889 2889 2889 2889 2889 2889 2889 2890 2889 2889 2889 2889 2889 2889 2889 2890 2891 2892 2893 2893 2893 2893 2894 2895 2897
2954 2953 2952 2951 2950 2949 2948 2947 2946 2945 2944 2943 2942 2941 2940 2938 2936 2936 2935 2933 2931 2930 2928 2927 2926 2924 2923 2921 2919 2918 2917 2916 2915 2913 2911 2909 2908 2906 2904 2903 2901 2899 2898 2896 2895 2894 2892 2891 2890 2889 2887 2886 2884 2883 2882 2881 2881 2881 2881 2881 2881 2881 2882 2882 2882 2882 2882 2882 2881 2881 2881 2881 2881 2881 2882 2882 2883 2885 2885 2886 2887 2886 2886 2888 2890
2948 2947 2945 2944 2943 2942 2941 2940 2939 2938 2937 2936 2936 2935 2935 2933 2931 2930 2929 2927 2926 2924 2923 2921 2920 2918 2917 2916 2914 2912 2911 2910 2909 2908 2906 2905 2903 2902 2900 2899 2897 2895 2894 2892 2891 2889 2888 2886 2885 2883 2882 2880 2879 2878 2876 2875 2875 2874 2874 2874 2874 2874 2874 2874 2874 2874 2874 2873 2874 2874 2873 2873 2873 2874 2874 2875 2876 2877 2877 2878 2879 2879 2879 2881 2884
2942 2940 2939 2937 2936 2935 2934 2933 2932 2931 2930 2929 2928 2927 2927 2927 2926 2925 2923 2921 2919 2918 2917 2915 2914 2912 2910 2909 2908 2907 2905 2903 2902 2901 2900 2899 2898 2896 2895 2894 2892 2891 2889 2887 2886 2885 2883 2881 2880 2878 2877 2875 2874 2872 2871 2870 2869 2868 2867 2867 2867 2867 2866 2866 2866 2866 2866 2865 2865 2865 2865 2865 2866 2866 2867 2868 2868 2869 2869 2870 2870 2871 2872 2874 2876
2935 2933 2932 2930 2929 2927 2926 2925 2924 2923 2922 2921 2919 2918 2917 2916 2917 2917 2916 2915 2913 2911 2910 2909 2907 2906 2904 2902 2901 2900 2899 2898 2896 2894 2893 2891 2890 2889 2889 2888 2886 2885 2884 2882 2880 2879 2878 2876 2875 2873 2872 2870 2869 2867 2866 2864 2863 2862 2861 2860 2860 2859 2859 2859 2859 2859 2858 2858 2858 2858 2858 2858 2858 2859 2859 2860 2860 2861 2862 2863 2863 2864 2865 2867 2868
2927 2926 2924 2923 2921 2920 2918 2917 2916 2915 2914 2912 2911 2910 2908 2907 2906 2906 2906 2906 2906 2904 2902 2901 2900 2899 2897 2896 2894 2892 2891 2890 2889 2888 2886 2885 2883 2882 2881 2881 2880 2878 2877 2876 2874 2873 2872 2871 2869 2868 2866 2865 2863 2862 2860 2859 2858 2856 2855 2854 2853 2853 2853 2852 2851 2850 2850 2850 2850 2850 2851 2851 2851 2851 2852 2852 2853 2855 2856 2857 2858 2859 2860 2860 2861
2918 2917 2916 2915 2913 2912 2910 2909 2907 2906 2905 2904 2903 2901 2900 2898 2897 2895 2894 2894 2895 2895 2895 2894 2892 2891 2890 2889 2887 2885 2884 2883 2882 2880 2879 2878 2876 2875 2874 2873 2872 2871 2870 2869 2867 2866 2865 2865 2864 2862 2861 2859 2857 2856 2855 2853 2852 2851 2849 2848 2847 2846 2845 2845 2844 2843 2843 2843 2843 2843 2843 2843 2843 2844 2844 2845 2847 2849 2850 2851 2852 2853 2854 2855 2856
2910 2909 2907 2906 2905 2903 2902 2900 2899 2898 2896 2895 2894 2893 2891 2890 2888 2887 2885 2884 2883 2883 2883 2884 2883 2883 2882 2881 2879 2878 2876 2875 2874 2873 2872 2870 2869 2868 2866 2865 2864 2864 2863 2862 2860 2859 2858 2857 2857 2856 2854 2853 2851 2850 2849 2847 2846 2845 2843 2842 2841 2840 2838 2837 2837 2837 2836 2836 2836 2836 2836 2836 2836 2836 2837 2838 2840 2841 2843 2845 2846 2847 2848 2849 2850
2901 2900 2899 2898 2896 2894 2893 2891 2890 2889 2887 2886 2885 2883 2882 2881 2879 2878 2877 2875 2874 2872 2872 2872 2871 2871 2871 2871 2870 2869 2868 2867 2865 2864 2863 2862 2861 2859 2858 2856 2856 2855 2854 2854 2853 2852 2851 2850 2849 2848 2847 2846 2845 2843 2842 2841 2840 2838 2837 2836 2835 2833 2832 2831 2830 2830 2829 2829 2829 2829 2829 2829 2829 2829 2830 2832 2833 2835 2837 2838 2839 2841 2842 2843 2843
2892 2891 2890 2889 2888 2886 2884 2883 2881 2880 2878 2877 2875 2874 2873 2871 2870 2868 2867 2866 2865 2863 2862 2861 2860 2859 2859 2859 2859 2858 2858 2858 2857 2856 2854 2853 2852 2851 2849 2848 2847 2845 2845 2844 2844 2843 2843 2842 2841 2840 2839 2838 2837 2836 2835 2834 2833 2831 2830 2829 2828 2827 2826 2825 2824 2823 2822 2822 2822 2822 2822 2822 2822 2823 2824 2825 2827 2829 2831 2832 2833 2834 2835 2836 2837
2883 2882 2881 2880 2878 2877 2875 2874 2872 2871 2869 2867 2866 2864 2863 2862 2861 2859 2858 2856 2855 2854 2853 2852 2850 2849 2848 2847 2846 2845 2845 2845 2846 2846 2846 2844 2843 2842 2840 2839 2838 2837 2836 2835 2834 2833 2833 2833 2832 2832 2831 2830 2829 2828 2827 2826 2825 2824 2823 2822 2821 2820 2819 2818 2817 2816 2815 2815 2815 2815 2816 2816 2816 2817 2818 2819 2821 2823 2825 2826 2827 2828 2829 2829 2831
2873 2872 2871 2870 2869 2867 2866 2864 2862 2861 2859 2858 2856 2854 2853 2852 2851 2849 2848 2847 2846 2844 2843 2842 2841 2839 2838 2836 2835 2833 2831 2831 2831 2832 2832 2833 2833 2832 2831 2830 2829 2828 2827 2826 2824 2824 2823 2823 2822 2822 2822 2821 2821 2820 2819 2818 2817 2816 2815 2814 2813 2812 2812 2811 2810 2810 2809 2809 2809 2809 2810 2810 2811 2812 2812 2813 2815 2817 2819 2820 2820 2822 2823 2824 2825
2863 2862 2861 2859 2858 2857 2855 2853 2852 2850 2848 2847 2845 2844 2842 2840 2839 2838 2836 2835 2834 2833 2832 2831 2830 2829 2827 2826 2824 2822 2820 2820 2819 2818 2817 2818 2819 2819 2819 2819 2818 2818 2817 2816 2815 2814 2813 2813 2813 2812 2812 2812 2811 2811 2810 2809 2808 2807 2807 2806 2805 2805 2805 2804 2804 2803 2803 2803 2802 2803 2803 2804 2805 2806 2807 2808 2809 2811 2812 2813 2814 2816 2817 2818 2819
2853 2851 2850 2849 2847 2846 2844 2843 2841 2840 2838 2836 2834 2832 2830 2829 2827 2825 2824 2822 2821 2820 2819 2818 2818 2817 2815 2814 2813 2812 2810 2809 2809 2807 2806 2805 2805 2805 2806 2806 2806 2806 2806 2806 2805 2804 2804 2803 2803 2802 2802 2802 2802 2802 2801 2800 2800 2799 2798 2798 2797 2797 2797 2797 2797 2796 2796 2796 2796 2796 2797 2798 2799 2800 2801 2802 2803 2804 2805 2806 2808 2809 2810 2812 2813
2843 2841 2840 2838 2837 2835 2834 2832 2830 2829 2827 2825 2824 2822 2820 2818 2816 2814 2813 2811 2810 2808 2807 2806 2805 2804 2803 2802 2801 2800 2799 2798 2797 2796 2795 2794 2793 2793 2793 2793 2793 2794 2794 2794 2794 2794 2793 2793 2793 2793 2793 2792 2792 2792 2792 2791 2791 2790 2790 2789 2789 2789 2789 2789 2789 2789 2790 2790 2790 2790 2791 2792 2793 2793 2794 2795 2796 2797 2798 2800 2801 2803 2805 2806 2809
2833 2832 2830 2828 2826 2824 2823 2821 2819 2818 2816 2815 2813 2812 2810 2808 2807 2805 2803 2802 2800 2798 2796 2795 2794 2793 2792 2791 2790 2788 2788 2787 2786 2785 2784 2783 2782 2781 2781 2781 2781 2781 2782 2782 2783 2783 2782 2782 2783 2782 2782 2782 2782 2782 2782 2782 2781 2781 2781 2781 2781 2781 2781 2782 2782 2782 2783 2783 2783 2784 2785 2786 2786 2786 2787 2787 2788 2790 2792 2794 2796 2798 2800 2802 2804
2824 2822 2820 2818 2817 2815 2813 2812 2810 2808 2807 2805 2804 2802 2800 2799 2797 2796 2794 2792 2791 2789 2787 2786 2784 2783 2782 2781 2780 2778 2777 2776 2775 2774 2773 2772 2771 2771 2770 2770 2770 2770 2770 2770 2771 2771 2771 2771 2771 2772 2772 2772 2772 2772 2772 2772 2772 2772 2772 2772 2772 2773 2773 2774 2774 2775 2775 2776 2776 2777 2778 2779 2779 2779 2780 2781 2782 2784 2786 2789 2792 2794 2795 2797 2800
2814 2812 2811 2809 2808 2806 2804 2802 2801 2799 2798 2796 2795 2793 2792 2790 2789 2787 2785 2784 2783 2781 2779 2777 2776 2774 2773 2771 2770 2768 2767 2766 2765 2764 2764 2763 2762 2761 2760 2760 2760 2759 2759 2759 2760 2760 2760 2760 2760 2761 2761 2761 2761 2761 2762 2762 2762 2763 2763 2763 2764 2764 2765 2766 2767 2767 2768 2768 2769 2770 2771 2772 2773 2773 2774 2776 2778 2780 2782 2785 2787 2789 2791 2794 2797
2804 2803 2801 2800 2798 2797 2795 2794 2792 2790 2789 2788 2786 2785 2784 2782 2781 2779 2777 2776 2775 2773 2771 2770 2768 2767 2765 2763 2762 2760 2758 2757 2756 2755 2754 2753 2752 2752 2751 2751 2750 2750 2750 2750 2750 2750 2750 2750 2750 2751 2751 2752 2752 2752 2752 2753 2753 2754 2755 2755 2756 2757 2758 2759 2759 2760 2760 2761 2762 2763 2764 2765 2766 2768 2770 2772 2774 2777 2779 2781 2783 2786 2788 2791 2794
2796 2795 2793 2792 2791 2790 2788 2786 2785 2784 2782 2781 2779 2778 2777 2775 2773 2772 2770 2769 2768 2766 2765 2763 2761 2759 2758 2756 2754 2752 2750 2748 2747 2746 2745 2744 2743 2743 2742 2742 2741 2741 2741 2741 2741 2741 2741 2742 2742 2743 2743 2744 2744 2744 2745 2745 2746 2746 2747 2748 2749 2749 2750 2751 2751 2752 2752 2753 2754 2755 2756 2758 2760 2763 2766 2769 2771 2773 2775 2777 2780 2783 2785 2788 2790
2789 2788 2787 2786 2785 2783 2782 2781 2780 2778 2776 2775 2774 2772 2770 2769 2767 2766 2765 2763 2762 2760 2758 2756 2754 2752 2750 2748 2746 2744 2742 2741 2739 2738 2737 2736 2736 2735 2735 2734 2734 2734 2734 2734 2734 2734 2734 2734 2735 2735 2736 2736 2737 2737 2737 2738 2739 2739 2740 2741 2741 2742 2742 2743 2744 2744 2745 2746 2747 2749 2751 2753 2756 2759 2762 2765 2767 2769 2771 2774 2777 2779 2782 2784 2785
2783 2782 2781 2781 2780 2779 2777 2776 2775 2774 2772 2771 2769 2767 2766 2764 2763 2762 2760 2758 2756 2754 2752 2750 2748 2746 2744 2742 2740 2738 2737 2735 2734 2733 2732 2731 2730 2729 2729 2728 2728 2728 2728 2728 2728 2728 2728 2728 2728 2728 2728 2729 2729 2730 2731 2731 2732 2733 2733 2734 2735 2735 2736 2737 2738 2739 2740 2741 2743 2745 2747 2749 2751 2754 2757 2761 2763 2766 2768 2771 2773 2775 2777 2779 2781
2779 2779 2778 2777 2776 2775 2774 2773 2772 2770 2769 2767 2766 2764 2763 2761 2760 2758 2756 2754 2753 2751 2748 2746 2744 2742 2740 2738 2736 2734 2733 2732 2730 2729 2728 2727 2726 2725 2724 2724 2723 2723 2723 2722 2722 2722 2722 2722 2722 2722 2722 2722 2723 2724 2724 2725 2726 2727 2728 2729 2729 2730 2732 2733 2734 2735 2736 2737 2739 2741 2743 2745 2747 2750 2753 2757 2760 2763 2765 2767 2769 2771 2773 2774 2776
2777 2777 2776 2775 2774 2773 2772 2771 2769 2768 2767 2765 2764 2762 2761 2759 2758 2756 2754 2752 2750 2748 2746 2744 2742 2740 2738 2736 2734 2733 2731 2730 2728 2727 2725 2724 2723 2722 2721 2720 2719 2719 2719 2718 2718 2718 2718 2717 2717 2717 2718 2718 2718 2719 2720 2720 2721 2722 2723 2724 2725 2726 2728 2729 2730 2732 2733 2734 2736 2737 2739 2742 2744 2747 2750 2753 2757 2759 2762 2763 2765 2767 2768 2770 2772